Location: Finkenwalde
(53.3770°N, 14.6418°E)
Time: 03:41:31
(UTC+00:00)

IRIDIUM 104 - Pass Details

Date: 05 February 2023
Orbit: 776 x 779 km, 86.4° (Epoch: 24 March)

Event Time Altitude Azimuth Distance (km) Brightness Sun altitude
Rises 17:18:22 0° 356° (N) 3,278 7.5 -13.1°
Reaches altitude 10° 17:20:45 10° 360° (N) 2,346 6.7 -13.4°
Maximum altitude 17:25:59 66° 82° (E) 854 4.3 -14.2°
Drops below altitude 10° 17:31:10 10° 165° (SSE) 2,327 6.7 -15.0°
Sets 17:33:31 0° 168° (SSE) 3,250 7.5 -15.3°
